www.pogodaiklimat.ru

Погода и климат >> Архив погоды >> Австралия >> Западная Австралия >> Маунт Магнет аэропорт


ПОГОДА в Маунт Магнет аэропорту

  • Прогноз погоды в Маунт Магнет аэропорту
  • Монитор погоды в Маунт Магнет аэропорту

АРХИВ ПОГОДЫ в Маунт Магнет аэропорту

Время (UTC), дата Ветер
(напр.,м/с)
 
Видим.   Явления Облачность Т
(С)
Тd
(С)
f
(%)
Тe
(С)
Тes
(С)
Комфортность P
(гПа)
Po
(гПа)
Тmin
(С)
Tmax
(С)
R
(мм)
R24
(мм)
S
(см)
13 15.09 Ю 7 н/о н/о +25.7 +6.3 29 +25 +25 комфорт 1018.7 971.3 +34.0
15 15.09 Ю 5 н/о н/о +23.2 +7.7 37 +24 +24 комфорт 1018.9 971.5
16 15.09 Ю 4 н/о н/о +22.0 +8.5 42 +23 +23 комфорт 1018.9 971.5
18 15.09 Ю 3 н/о н/о +19.5 +8.8 50 +21 +21 комфорт 1018.2 970.9
19 15.09 Ю 2 н/о н/о +18.9 +9.1 53 +20 +20 1017.6 970.3
21 15.09 В 4 н/о н/о +18.5 +9.8 57 +19 +19 1017.6 970.3
22 15.09 В 5 н/о н/о +19.0 +10.0 56 +20 +20 1017.8 970.5
00 16.09 В 7 н/о н/о +21.0 +10.5 51 +23 +23 комфорт 1019.5 972.1
01 16.09 В 7 н/о н/о +23.0 +10.1 44 +25 +25 комфорт 1019.6 972.2 +17.6
03 16.09 В 6 н/о н/о +24.9 +8.4 35 +25 +25 комфорт 1018.8 971.4
04 16.09 В 5 н/о н/о +27.3 +7.7 29 +27 +27 жарко 1017.8 970.5
06 16.09 В 4 н/о н/о +29.3 +6.7 24 +28 +28 жарко 1016.2 969.0
07 16.09 ЮВ 5 н/о н/о +30.0 +4.6 20 +28 +28 жарко 1015.5 968.3
09 16.09 В 4 н/о н/о +30.2 +3.3 18 +28 +28 жарко 1015.2 968.0
10 16.09 В 4 н/о 1/0
[]
+29.0 +3.1 19 +27 +27 жарко 1015.2 968.0
12 16.09 ЮВ 4 н/о н/о +25.7 +3.0 23 +25 +25 комфорт 1015.8 968.6
13 16.09 ЮВ 3 н/о н/о +23.5 +2.9 26 +23 +23 комфорт 1016.4 969.1 +30.9
15 16.09 Ю 3 н/о н/о +20.7 +3.9 33 +22 +22 комфорт 1016.1 968.9
16 16.09 ЮЗ 4 н/о н/о +20.3 +4.8 36 +21 +21 комфорт 1016.2 969.0
18 16.09 Ю 3 н/о н/о +18.0 +4.6 41 +18 +18 1015.7 968.5
19 16.09 Ю 3 н/о н/о +17.2 +4.9 44 +17 +17 1015.5 968.3
21 16.09 штиль 0 н/о н/о +16.0 +4.7 47 +16 +16 1015.7 968.5
22 16.09 штиль 0 н/о н/о +14.8 +4.2 49 +15 +15 1016.2 969.0
00 17.09 В 5 н/о н/о +21.9 +4.9 33 +22 +22 комфорт 1016.8 969.5
01 17.09 СВ 5 н/о н/о +24.4 +5.2 29 +24 +24 комфорт 1016.8 969.5 +14.7
03 17.09 З 3 н/о н/о +27.8 +4.2 22 +26 +26 жарко 1016.2 969.0
04 17.09 З 4 н/о н/о +29.5 +1.9 17 +27 +27 жарко 1015.4 968.2
06 17.09 З 8 н/о н/о +30.7 +0.2 14 +28 +28 жарко 1014.1 967.0
07 17.09 З 7 н/о н/о +31.8 -3.5 10 +28 +28 жарко 1013.9 966.8
09 17.09 З 7 н/о н/о +30.4 -4.6 10 +27 +27 жарко 1014.6 967.4
10 17.09 З 6 н/о н/о +28.7 -4.6 11 +25 +25 комфорт 1015.1 967.9
12 17.09 З 3 н/о н/о +24.8 -1.9 17 +23 +23 комфорт 1016.9 969.6
13 17.09 З 4 н/о н/о +23.8 -1.2 19 +22 +22 комфорт 1017.6 970.3 +32.5
15 17.09 ЮЗ 5 н/о н/о +21.0 +8.9 46 +23 +23 комфорт 1017.6 970.3
16 17.09 ЮЗ 5 н/о н/о +19.5 +10.2 55 +20 +20 1017.9 970.6
18 17.09 ЮЗ 4 н/о н/о +17.1 +10.9 67 +17 +17 1017.6 970.3
19 17.09 ЮЗ 4 н/о н/о +16.2 +11.4 73 +15 +15 1017.3 970.0
21 17.09 ЮЗ 3 н/о н/о +14.3 +10.9 80 +13 +13 1017.3 970.0
22 17.09 ЮЗ 3 н/о н/о +13.6 +11.0 84 +13 +13 1017.9 970.6
00 18.09 Ю 3 н/о н/о +15.5 +11.1 75 +15 +15 1018.0 970.7
01 18.09 СЗ 1 н/о н/о +17.2 +10.8 66 +18 +18 1018.0 970.7 +13.5
03 18.09 З 3 н/о н/о +22.3 +9.1 43 +24 +24 комфорт 1017.3 970.0
04 18.09 З 5 н/о н/о +24.2 +5.5 30 +24 +24 комфорт 1016.4 969.1
06 18.09 З 7 н/о н/о +27.0 +4.1 23 +26 +26 жарко 1014.0 966.9
07 18.09 З 7 н/о н/о +28.0 +1.5 18 +26 +26 жарко 1013.3 966.2
09 18.09 З 9 н/о н/о +27.1 0.0 17 +25 +25 комфорт 1013.2 966.1
10 18.09 З 7 н/о н/о +25.8 -0.3 18 +24 +24 комфорт 1013.5 966.4
12 18.09 З 5 н/о н/о +23.1 +3.1 27 +23 +23 комфорт 1014.7 967.5
13 18.09 ЮЗ 10 н/о н/о +20.0 +8.7 48 +20 +20 1015.6 968.4 +29.1
15 18.09 З 8 н/о н/о +17.3 +8.7 57 +16 +16 1015.7 968.5
16 18.09 З 6 н/о н/о +16.8 +8.2 57 +16 +16 1015.5 968.3
18 18.09 З 4 н/о н/о +16.0 +9.2 64 +15 +15 1014.6 967.4
19 18.09 З 6 н/о 3/3 600 м
[]
+15.9 +9.1 64 +15 +15 1014.1 967.0
21 18.09 З 7 н/о н/о +14.0 +11.3 84 +12 +12 1015.2 968.0
22 18.09 З 6 3000 м морось {туман} 10/10 100 м
[]
+13.4 +12.3 93 +11 +11 1015.5 968.3
00 19.09 ЮЗ 9 н/о н/о +11.0 +10.1 94 +7 +7 1017.7 970.4
01 19.09 ЮЗ 8 н/о в посл. час дождь {туман} 10/10 600 м
[]
+13.4 +8.5 72 +11 +11 1018.2 970.9 +11.4
03 19.09 ЮЗ 8 н/о н/о +15.0 +7.1 59 +13 +13 1018.7 971.3
04 19.09 ЮЗ 8 н/о 10/10 1000 м
[]
+16.1 +3.5 43 +15 +15 1018.2 970.9
06 19.09 ЮЗ 8 н/о н/о +17.3 +1.7 35 +16 +16 1018.0 970.7
07 19.09 Ю 8 н/о 6/0 2000 м
[]
+17.4 +1.0 33 +16 +17 1017.9 970.6
09 19.09 ЮЗ 8 н/о н/о +17.0 -0.2 31 +16 +16 1018.9 971.5
10 19.09 Ю 7 н/о н/о +16.2 -0.1 33 +15 +15 1019.5 972.1
12 19.09 Ю 6 н/о н/о +14.3 -0.9 35 +13 +13 1021.8 974.3
13 19.09 Ю 4 н/о н/о +13.2 -0.8 38 +12 +12 1022.2 974.7 +23.3
15 19.09 Ю 4 н/о н/о +11.2 -0.6 44 +9 +9 1022.5 975.0
16 19.09 ЮЗ 3 н/о н/о +9.4 -0.5 50 +8 +8 1022.7 975.2
18 19.09 Ю 4 н/о н/о +7.8 -0.9 54 +5 +5 1023.1 975.5
19 19.09 Ю 2 н/о н/о +6.5 -0.7 60 +5 +5 1023.4 975.8
21 19.09 Ю 4 н/о н/о +5.3 -1.2 63 +2 +2 1024.6 977.0
22 19.09 Ю 2 н/о н/о +4.7 -1.3 65 +2 +2 1025.1 977.4
00 20.09 ЮВ 8 н/о н/о +9.8 -0.7 48 +6 +6 1025.7 978.0
01 20.09 ЮВ 8 н/о н/о +11.4 -1.0 42 +8 +8 1025.9 978.2 +4.7
03 20.09 В 5 н/о н/о +14.3 -2.1 32 +13 +13 1025.0 977.3
04 20.09 ЮВ 5 н/о н/о +14.5 -2.8 30 +13 +13 1024.2 976.6
06 20.09 ЮВ 4 н/о н/о +17.3 -4.6 22 +17 +17 1022.5 975.0
07 20.09 ЮВ 5 н/о н/о +17.6 -5.6 20 +17 +17 1022.1 974.6
09 20.09 ЮВ 4 н/о н/о +17.6 -5.6 20 +17 +17 1022.4 974.9
10 20.09 Ю 5 н/о 1/0
[]
+17.4 -6.4 19 +17 +17 1022.9 975.3
12 20.09 Ю 4 н/о н/о +15.3 -5.7 23 +15 +15 1024.1 976.5
13 20.09 Ю 4 н/о 10/0
[]
+14.4 -5.3 25 +13 +13 1024.3 976.7 +19.1
15 20.09 Ю 5 н/о н/о +13.4 -4.7 28 +12 +12 1024.3 976.7
16 20.09 Ю 5 н/о 10/0
[]
+12.3 -4.3 31 +10 +10 1024.4 976.8
18 20.09 ЮВ 5 н/о н/о +11.1 -3.8 35 +9 +9 1024.2 976.6
19 20.09 ЮВ 4 н/о 10/0
[]
+10.3 -3.4 38 +8 +8 1024.3 976.7
21 20.09 ЮВ 4 н/о н/о +9.5 -2.8 42 +7 +7 1025.1 977.4
22 20.09 В 3 н/о 9/0
[]
+9.5 -2.4 43 +8 +8 1025.6 977.9
00 21.09 В 7 н/о н/о +12.3 -1.2 39 +10 +10 1026.4 978.7
01 21.09 В 6 н/о 9/0
[]
+14.4 -2.1 32 +13 +15 1026.5 978.8 +9.5
03 21.09 В 6 н/о н/о +17.6 -3.2 24 +17 +17 1025.4 977.7
04 21.09 В 4 н/о н/о +18.8 -3.3 22 +19 +19 1024.7 977.1
06 21.09 Ю 4 н/о н/о +19.5 -4.7 19 +19 +19 1023.4 975.8
07 21.09 В 5 н/о н/о +20.3 -5.5 17 +20 +20 1022.9 975.3
09 21.09 ЮВ 6 н/о н/о +20.3 -5.5 17 +20 +20 1023.1 975.5
10 21.09 ЮВ 6 н/о н/о +19.3 -5.6 18 +19 +19 1023.6 976.0
12 21.09 ЮВ 4 н/о н/о +16.7 -5.1 22 +16 +16 1025.4 977.7
13 21.09 ЮВ 4 н/о н/о +15.6 -5.4 23 +15 +15 1025.8 978.1 +21.3
15 21.09 В 3 н/о н/о +14.0 -5.2 26 +13 +13 1025.7 978.0
16 21.09 ЮВ 2 н/о н/о +12.3 -5.2 29 +12 +12 1025.7 978.0
18 21.09 ЮВ 4 н/о н/о +11.6 -4.1 33 +10 +10 1025.6 977.9
19 21.09 ЮВ 4 н/о н/о +11.1 -3.4 36 +9 +9 1025.8 978.1
21 21.09 В 3 н/о н/о +9.2 -3.0 42 +7 +7 1026.8 979.1
22 21.09 В 3 н/о н/о +8.9 -3.0 43 +7 +7 1027.2 979.4
00 22.09 В 6 н/о н/о +14.3 -3.9 28 +13 +13 1028.4 980.6
01 22.09 В 6 н/о н/о +16.4 -4.2 24 +15 +15 1028.5 980.7 +9.0
03 22.09 В 6 н/о н/о +19.6 -4.6 19 +19 +19 1027.7 979.9
04 22.09 В 6 н/о н/о +20.7 -5.2 17 +20 +20 1026.9 979.2
06 22.09 В 6 н/о н/о +22.2 -7.5 13 +20 +20 1025.3 977.6
07 22.09 В 5 н/о н/о +22.7 -8.1 12 +21 +21 комфорт 1024.7 977.1
09 22.09 В 6 н/о н/о +22.8 -7.0 13 +21 +21 комфорт 1025.0 977.3
10 22.09 ЮВ 6 н/о н/о +21.5 -6.2 15 +20 +20 1025.6 977.9
12 22.09 В 3 н/о н/о +17.9 -6.0 19 +18 +18 1027.3 979.5
13 22.09 В 3 н/о н/о +15.9 -6.4 21 +16 +16 1027.6 979.8 +23.6

 

Местоположение метеостанции Маунт Магнет аэропорт (Западная Австралия, Австралия): широта -28.11 долгота 117.83 высота над уровнем моря 408 м.

В архиве по умолчанию представлена погода в Маунт Магнет аэропорту за последнюю неделю. Архивные данные за месяц целиком и за предыдущие месяцы, начиная с января 2011 года, Вы можете получить, выбрав интересующий диапазон дат из раскрывающегося списка и нажав кнопку "Ввод!".


*Определитесь, кто Вы:
робот инопланетянин человек

Внимание! Время в таблицах - всемирное. Для получения местного времени необходимо прибавить поправку, которая равна 8 ч.

Смотрите также архив погоды в соседних городах и на ближайших метеорологических станциях:

Погода в Микатарре (Западная Австралия, Австралия) (181 км)
Погода в Мораве (Западная Австралия, Австралия) (214 км)
Погода в Дауоллину (Западная Австралия, Австралия) (266 км)
Погода в Леинстере (Западная Австралия, Австралия) (283 км)
Погода в Джеральдтоне (Западная Австралия, Австралия) (316 км)
Погода в Баджингарре (Западная Австралия, Австралия) (333 км)
Погода в Леонора аэропорту (Западная Австралия, Австралия) (352 км)
Погода в Саутерн Кросс (Западная Австралия, Австралия) (377 км)
Погода в Кандердине (Западная Австралия, Австралия) (395 км)
Погода в Гингине (Западная Австралия, Австралия) (419 км)

Пояснения к столбцам:

Ветер - указаны скорость ветра в м/с - средняя за 10 мин, порывы в срок и между сроками (в фигурных скобках) и направление, откуда дует ветер: С - северный, СВ - северо-восточный, В - восточный, ЮВ - юго-восточный, Ю - южный, ЮЗ - юго-западный, З - западный, СЗ - северо-западный.
Видимость - горизонтальная дальность видимости в метрах или километрах. При видимости от 1 до 10 км при отсутствии осадков обычно наблюдается дымка, при ухудшении видимости до 1 км и менее - туман. В сухую погоду видимость может ухудшаться дымом, пылью или мглою.
Явления - указаны атмосферные явления, наблюдавшиеся в срок или в последний час перед сроком; фигурными скобками обозначены явления, наблюдавшиеся между сроками (за 1-3 часа до срока); квадратными скобками обозначены град или гололедные отложения с указанием их диаметра в мм.
Облачность - указаны через наклонную черту общая и нижняя облачность в баллах и высота нижней границы облаков в метрах; квадратными скобками обозначены формы облаков: Ci - перистые, Cs - перисто-слоистые, Cc - перисто-кучевые, Ac - высококучевые, As - высокослоистые, Sc - слоисто-кучевые, Ns - слоисто-дождевые, Cu - кучевые, Cb - кучево-дождевые. Подробнее классификацию облаков см. в Атласе облаков (PDF).
T - Температура воздуха - температура, измеренная на высоте 2 м над землей.
Td - Температура точки росы - температура, при понижении до которой содержащийся в воздухе водяной пар достигнет насыщения.
f - Относительная влажность воздуха - влажноcть воздуха, измеренная на высоте 2 м над землей.
Te - Эффективная температура - температура, которую ощущает одетый по сезону человек в тени. Характеристика душности погоды. При расчете учитывается влияние влажности воздуха и скорости ветра на теплоощущения человека.
Tes - Эффективная температура на солнце - температура, которую ощущает человек, с поправкой на солнечный нагрев. Характеристика знойности погоды. Зависит от высоты солнца над горизонтом, облачности и скорости ветра. Ночью, в пасмурную погоду, а также при ветре 12 м/с и более поправка равна нулю.
P - Атмосферное давление - приведенное к уровню моря атмосферное давление.
Po - Атмосферное давление - измеренное на уровне метеостанции атмосферное давление.
Tmin - Минимальная температура - минимум температуры воздуха на высоте 2 м над землей.
Tmax - Максимальная температура - максимум температуры воздуха на высоте 2 м над землей.
R - Количество осадков - Количество выпавших осадков за период времени, мм. При наведении курсора мыши на число - период времени, за который выпало указанное количество осадков.
R24 - Количество осадков - Количество выпавших осадков за 24 часа, мм.
S - Снежный покров - Высота снежного покрова, см. При наведении курсора мыши на число - состояние снежного покрова и степень покрытия местности в баллах.